Seattle, WA
on Monday, January 28, 2013

Monday
Previous Day Next Day
Daily Summary
 ActualAverageRecord
Temperature
Mean Temperature °F 43°F  
Max Temperature 43°F 48°F 57°F (1976)
Min Temperature 38°F 37°F 7°F (1950)
Degree Days
Heating Degree Days 24 22  
Month to date heating degree days 765 644  
Since 1 July heating degree days 2516 2582  
Cooling Degree Days 0 0  
Month to date cooling degree days 0 0  
Year to date cooling degree days 0 0  
Moisture
Dew Point 38°F   
Average Humidity 86    
Maximum Humidity 92    
Minimum Humidity 79    
Precipitation
Precipitation 0.31 in 0.16 in 1.23 in (1960)
Month to date precipitation 3.73 5.10  
Year to date precipitation 3.73 5.10  
Snow
Snow 0.00 in in 3.10 in (1996)
Month to date snowfall T  
Since 1 July snowfall 0.6  
Snow Depth 0.00 in   
Wind
Wind Speed 7 mph   
Max Wind Speed 14 mph   
Max Gust Speed 17 mph   
Visibility 10 miles   
Events Rain   

Key: T is trace of precipitation, MM is missing value
Source: NWS Daily Summary
Time(PST)TemperatureDew PointHumidity Pressure Visibility Wind DirectionWind SpeedGust SpeedPrecipitationEvents Conditions
12:53 AM 39.0°F 37.0°F 93% 30.03 in 7.0 miles SSE 5.8 mph - N/A   Overcast
1:53 AM 39.0°F 37.0°F 93% 30.05 in 7.0 miles SE 5.8 mph - N/A   Overcast
2:16 AM 39.2°F 37.4°F 93% 30.02 in 10.0 miles SE 6.9 mph - N/A   Overcast
2:50 AM 39.2°F 37.4°F 93% 30.02 in 10.0 miles SE 6.9 mph - N/A   Overcast
2:53 AM 39.0°F 37.0°F 93% 30.05 in 10.0 miles SE 6.9 mph - N/A   Overcast
3:53 AM 39.0°F 37.0°F 93% 30.06 in 10.0 miles SSE 6.9 mph - N/A   Overcast
4:39 AM 37.4°F 35.6°F 93% 30.04 in 10.0 miles SSE 5.8 mph - N/A   Overcast
4:53 AM 37.9°F 36.0°F 93% 30.07 in 10.0 miles SSE 4.6 mph - N/A   Overcast
5:53 AM 37.9°F 36.0°F 93% 30.07 in 10.0 miles SSE 4.6 mph - N/A   Overcast
6:53 AM 37.9°F 36.0°F 93% 30.08 in 10.0 miles South 5.8 mph - N/A   Overcast
7:53 AM 39.0°F 36.0°F 89% 30.09 in 10.0 miles South 5.8 mph - N/A   Overcast
8:53 AM 39.9°F 37.0°F 89% 30.09 in 10.0 miles South 5.8 mph - N/A   Overcast
9:53 AM 41.0°F 37.0°F 86% 30.09 in 10.0 miles South 6.9 mph - N/A   Overcast
10:16 AM 41.0°F 37.4°F 87% 30.06 in 10.0 miles South 5.8 mph - N/A   Overcast
10:34 AM 41.0°F 37.4°F 87% 30.07 in 10.0 miles SSW 8.1 mph - 0.00 in Rain Light Rain
10:53 AM 41.0°F 36.0°F 82% 30.09 in 10.0 miles SW 6.9 mph - 0.00 in   Overcast
11:53 AM 42.1°F 37.0°F 82% 30.09 in 10.0 miles SW 10.4 mph - 0.00 in Rain Light Rain
12:53 PM 42.1°F 37.9°F 85% 30.08 in 7.0 miles SSW 6.9 mph - 0.00 in Rain Light Rain
1:53 PM 42.1°F 39.0°F 89% 30.07 in 10.0 miles South 10.4 mph - 0.02 in Rain Light Rain
2:53 PM 42.1°F 39.0°F 89% 30.05 in 10.0 miles SSW 9.2 mph - 0.02 in Rain Light Rain
3:23 PM 42.8°F 39.2°F 87% 30.03 in 10.0 miles SSW 9.2 mph - 0.00 in Rain Light Rain
3:53 PM 43.0°F 39.9°F 89% 30.05 in 10.0 miles SW 9.2 mph - 0.01 in Rain Light Rain
4:53 PM 43.0°F 39.0°F 86% 30.06 in 10.0 miles SW 9.2 mph - 0.02 in Rain Light Rain
5:38 PM 42.8°F 39.2°F 87% 30.03 in 10.0 miles SW 4.6 mph - 0.02 in Rain Light Rain
5:53 PM 42.1°F 39.0°F 89% 30.06 in 10.0 miles SW 4.6 mph - 0.03 in Rain Light Rain
6:53 PM 42.1°F 39.0°F 89% 30.07 in 8.0 miles SW 8.1 mph - 0.06 in Rain Light Rain
7:26 PM 42.8°F 39.2°F 87% 30.04 in 10.0 miles SSW 8.1 mph - 0.01 in Rain Light Rain
7:53 PM 42.1°F 39.0°F 89% 30.07 in 10.0 miles SSW 6.9 mph - 0.02 in Rain Light Rain
8:53 PM 42.1°F 39.0°F 89% 30.08 in 10.0 miles SW 10.4 mph - 0.02 in Rain Light Rain
9:53 PM 42.1°F 39.0°F 89% 30.09 in 10.0 miles South 5.8 mph - 0.04 in Rain Light Rain
10:53 PM 42.1°F 39.0°F 89% 30.11 in 10.0 miles South 6.9 mph - 0.03 in Rain Light Rain
11:53 PM 42.1°F 39.0°F 89% 30.12 in 10.0 miles South 6.9 mph - 0.04 in Rain Light Rain
Moon Phase
Jan. 28 Feb. 03 Feb. 10 Feb. 17 Feb. 25
Sunrise:07:39 AM (PST) Moon Rise:07:17 PM (PST)1/28
Sunset:05:05 PM (PST) Moon Set:07:57 AM (PST)1/28

Copyright © 2014 The Weather Underground, Inc.